Voltar ao catálogo

FREGAT DEB

AtivoUNKNOWN
NORAD 46252·DEBRIS·🇷🇺 Russia

Lançado Jul 18, 2011 de Baikonur Cosmodrome

Loading…

Próximas Passagens (próximas 24 horas)

TLE

AtualizadoSource: Space-Track

Época: Sep 12, 2026, 08:51 UTC

1 46252U 11037KN  26255.36905172  .00016713  00000-0  80345-1 0  9993
2 46252  50.7517 275.4437 1693650 293.7790  49.4658 10.56375712222891

Acompanhe FREGAT DEB em tempo real com AllMySat

Download on the App Store